Location: Caltech
(34.1382°N, 118.1253°W)
Time: 08:09:27
(UTC-08:00)

HO-68 - Visible Passes

Search period start: 28 January 2015 00:00
Search period end: 07 February 2015 00:00
Orbit: 1193 x 1204 km, 100.2° (Epoch: 28 January)

Date Brightness Start Highest point End Pass type
(mag) Time Alt. Az. Time Alt. Az. Time Alt. Az.
28 Jan ? 18:03:26 10° ENE 18:03:54 10° ENE 18:05:27 10° NE visible
28 Jan ? 19:52:53 45° N 19:52:53 45° N 19:57:41 10° N visible
28 Jan ? 21:42:19 13° WNW 21:42:19 13° WNW 21:43:21 10° NW visible
29 Jan ? 19:35:31 43° NNE 19:35:31 43° NNE 19:40:38 10° N visible
29 Jan ? 21:24:57 18° WNW 21:24:57 18° WNW 21:27:21 10° NW visible
30 Jan ? 19:18:09 37° NE 19:18:09 37° NE 19:23:30 10° N visible
30 Jan ? 21:07:34 25° WNW 21:07:34 25° WNW 21:11:00 10° NW visible
31 Jan ? 19:00:46 30° ENE 19:00:46 30° ENE 19:06:14 10° N visible
31 Jan ? 20:50:12 34° NW 20:50:12 34° NW 20:54:27 10° NNW visible
01 Feb ? 18:43:23 23° ENE 18:43:27 23° ENE 18:48:49 10° NNE visible
01 Feb ? 20:32:49 44° NW 20:32:49 44° NW 20:37:46 10° NNW visible
02 Feb ? 18:26:01 16° ENE 18:26:45 17° ENE 18:31:09 10° NNE visible
02 Feb ? 20:15:27 57° NNW 20:15:27 57° NNW 20:20:57 10° NNW visible
03 Feb ? 18:08:39 11° ENE 18:10:07 12° ENE 18:12:55 10° NE visible
03 Feb ? 19:58:04 63° N 19:58:04 63° N 20:04:03 10° NNW visible
03 Feb ? 21:47:31 13° WNW 21:47:31 13° WNW 21:49:10 10° WNW visible
04 Feb ? 19:40:43 56° NE 19:40:43 56° NE 19:47:02 10° N visible
04 Feb ? 21:30:08 19° WNW 21:30:08 19° WNW 21:33:22 10° NW visible
05 Feb ? 19:23:20 44° ENE 19:23:20 44° ENE 19:29:56 10° N visible
05 Feb ? 21:12:46 27° WNW 21:12:46 27° WNW 21:17:08 10° NW visible
06 Feb ? 19:05:58 33° ENE 19:06:27 33° ENE 19:12:44 10° N visible
06 Feb ? 20:55:24 37° WNW 20:55:24 37° WNW 21:00:40 10° NNW visible
